Weather History for Glen Ullin Rgnl, Glen Ullin,, ND

Change the Weather History Date:

Monday, November 4, 2013

  Actual Average (KDIK) Record (KDIK)
Temperature  
Mean Temperature 29 °F 35 °F  
Max Temperature 39 °F 47 °F 74 °F (1975)
Min Temperature 19 °F 24 °F -7 °F (1935)
Degree Days  
Heating Degree Days 36 30  
Month to date heating degree days 116  
Since 1 July heating degree days 1127  
Cooling Degree Days 0 0  
Month to date cooling degree days 0  
Year to date cooling degree days 419  
Moisture  
Dew Point 17 °F    
Average Humidity 58    
Maximum Humidity 80    
Minimum Humidity 36    
Precipitation  
Precipitation 0.00 in 0.03 in 0.55 in (1948)
Month to date precipitation 0.10  
Year to date precipitation 15.09  
Sea Level Pressure  
Sea Level Pressure 29.90 in    
Wind  
Wind Speed 16 mph ()    
Max Wind Speed 30 mph    
Max Gust Speed 40 mph    
Visibility 10.0 miles    
Events      
T = Trace of Precipitation, MM = Missing Value Source: Averaged Metar Reports

Daily Weather History Graph

Daily Weather History Graph

Search for Another Location

Airport:

Trip Planner

Search our weather history database for the weather conditions in past years. The results will help you decide how hot, cold, wet, or windy it might be!

Date:

Astronomy

Nov. 04, 2013 Rise Set
Actual Time 6:34 AM MST 4:26 PM MST
Civil Twilight 6:02 AM MST 4:58 PM MST
Nautical Twilight 5:26 AM MST 5:34 PM MST
Astronomical Twilight 4:51 AM MST 6:10 PM MST
Moon 7:51 AM MST (11/4) 5:28 PM MST (11/4)
Length of Visible Light 10h 56m
Length of Day
9h 52m
New Moon, 2% of the Moon is Illuminated
Nov 4
New Moon
Nov 9
First Quarter
Nov 17
Full
Nov 25
Last Quarter
Dec 2
New

Hourly Weather History & Observations

Time (MST) Temp. Windchill Dew Point Humidity Pressure Visibility Wind Dir Wind Speed Gust Speed Precip Events Conditions
12:15 AM 33.8 °F 25.3 °F 24.8 °F 70% 29.73 in 10.0 mi West 11.5 mph - N/A   Clear
12:35 AM 33.8 °F 24.3 °F 24.8 °F 70% 29.74 in 10.0 mi West 13.8 mph - N/A   Clear
12:55 AM 32.0 °F 23.0 °F 24.8 °F 75% 29.73 in 10.0 mi West 11.5 mph - N/A   Clear
1:15 AM 30.2 °F 21.3 °F 24.8 °F 80% 29.75 in 10.0 mi West 10.4 mph - N/A   Clear
1:35 AM 30.2 °F 21.3 °F 23.0 °F 75% 29.76 in 10.0 mi West 10.4 mph - N/A   Clear
1:55 AM 30.2 °F 21.3 °F 23.0 °F 75% 29.76 in 10.0 mi West 10.4 mph - N/A   Scattered Clouds
2:15 AM 32.0 °F 22.5 °F 24.8 °F 75% 29.77 in 10.0 mi West 12.7 mph - N/A   Overcast
2:35 AM 33.8 °F 24.3 °F 24.8 °F 70% 29.76 in 10.0 mi West 13.8 mph - N/A   Overcast
2:55 AM 33.8 °F 23.2 °F 24.8 °F 70% 29.76 in 10.0 mi West 17.3 mph - N/A   Overcast
3:15 AM 33.8 °F 23.9 °F 23.0 °F 65% 29.77 in 10.0 mi WNW 15.0 mph 24.2 mph N/A   Overcast
3:35 AM 33.8 °F 21.0 °F 23.0 °F 65% 29.77 in 10.0 mi WNW 25.3 mph 33.4 mph N/A   Overcast
3:55 AM 33.8 °F 22.5 °F 21.2 °F 60% 29.77 in 10.0 mi WNW 19.6 mph 32.2 mph N/A   Overcast
4:15 AM 33.8 °F 21.6 °F 21.2 °F 60% 29.78 in 10.0 mi West 23.0 mph 38.0 mph N/A   Overcast
4:35 AM 33.8 °F 21.6 °F 21.2 °F 60% 29.78 in 10.0 mi WNW 23.0 mph 33.4 mph N/A   Overcast
4:55 AM 32.0 °F 20.8 °F 21.2 °F 64% 29.78 in 10.0 mi WNW 17.3 mph 34.5 mph N/A   Overcast
5:15 AM 32.0 °F 20.5 °F 21.2 °F 64% 29.79 in 10.0 mi WNW 18.4 mph 31.1 mph N/A   Overcast
5:35 AM 32.0 °F 20.5 °F 21.2 °F 64% 29.79 in 10.0 mi WNW 18.4 mph 27.6 mph N/A   Overcast
5:55 AM 33.8 °F 21.9 °F 21.2 °F 60% 29.79 in 10.0 mi WNW 21.9 mph 33.4 mph N/A   Overcast
6:15 AM 32.0 °F 17.6 °F 19.4 °F 60% 29.80 in 10.0 mi WNW 29.9 mph 39.1 mph N/A   Overcast
6:35 AM 32.0 °F 18.6 °F 19.4 °F 60% 29.82 in 10.0 mi WNW 25.3 mph 35.7 mph N/A   Overcast
6:55 AM 32.0 °F 17.9 °F 19.4 °F 60% 29.82 in 10.0 mi WNW 28.8 mph 40.3 mph N/A   Overcast
7:15 AM 32.0 °F 19.5 °F 19.4 °F 60% 29.83 in 10.0 mi WNW 21.9 mph 32.2 mph N/A   Overcast
7:35 AM 32.0 °F 19.2 °F 19.4 °F 60% 29.84 in 10.0 mi WNW 23.0 mph 35.7 mph N/A   Overcast
7:55 AM 32.0 °F 19.8 °F 19.4 °F 60% 29.85 in 10.0 mi WNW 20.7 mph 28.8 mph N/A   Overcast
8:15 AM 32.0 °F 17.6 °F 19.4 °F 60% 29.85 in 10.0 mi WNW 29.9 mph 40.3 mph N/A   Overcast
8:35 AM 33.8 °F 21.9 °F 19.4 °F 56% 29.86 in 10.0 mi WNW 21.9 mph 38.0 mph N/A   Overcast
8:55 AM 33.8 °F 21.0 °F 19.4 °F 56% 29.86 in 10.0 mi WNW 25.3 mph 40.3 mph N/A   Mostly Cloudy
9:15 AM 33.8 °F 21.0 °F 19.4 °F 56% 29.87 in 10.0 mi WNW 25.3 mph 34.5 mph N/A   Clear
9:35 AM 35.6 °F 23.4 °F 19.4 °F 52% 29.88 in 10.0 mi WNW 25.3 mph 32.2 mph N/A   Scattered Clouds
9:55 AM 35.6 °F 23.7 °F 19.4 °F 52% 29.87 in 10.0 mi WNW 24.2 mph 33.4 mph N/A   Partly Cloudy
10:15 AM 35.6 °F 23.2 °F 19.4 °F 52% 29.88 in 10.0 mi WNW 26.5 mph 34.5 mph N/A   Clear
10:35 AM 37.4 °F 26.4 °F 19.4 °F 48% 29.88 in 10.0 mi WNW 23.0 mph 38.0 mph N/A   Clear
10:55 AM 37.4 °F 25.9 °F 19.4 °F 48% 29.89 in 10.0 mi WNW 25.3 mph 35.7 mph N/A   Clear
11:15 AM 37.4 °F 25.6 °F 19.4 °F 48% 29.89 in 10.0 mi West 26.5 mph 35.7 mph N/A   Partly Cloudy
11:35 AM 37.4 °F 26.1 °F 19.4 °F 48% 29.89 in 10.0 mi West 24.2 mph 34.5 mph N/A   Partly Cloudy
11:55 AM 37.4 °F 26.4 °F 19.4 °F 48% 29.89 in 10.0 mi WNW 23.0 mph 31.1 mph N/A   Clear
12:15 PM 37.4 °F 26.4 °F 17.6 °F 45% 29.89 in 10.0 mi West 23.0 mph 33.4 mph N/A   Clear
12:35 PM 39.2 °F 28.7 °F 15.8 °F 39% 29.89 in 10.0 mi WNW 23.0 mph 34.5 mph N/A   Clear
12:55 PM 39.2 °F 27.8 °F 15.8 °F 39% 29.89 in 10.0 mi WNW 27.6 mph 34.5 mph N/A   Clear
1:15 PM 39.2 °F 28.0 °F 14.0 °F 36% 29.89 in 10.0 mi WNW 26.5 mph 34.5 mph N/A   Clear
1:35 PM 39.2 °F 27.8 °F 14.0 °F 36% 29.89 in 10.0 mi WNW 27.6 mph 35.7 mph N/A   Clear
1:55 PM 39.2 °F 29.0 °F 14.0 °F 36% 29.90 in 10.0 mi WNW 21.9 mph 38.0 mph N/A   Clear
2:15 PM 39.2 °F 28.7 °F 14.0 °F 36% 29.90 in 10.0 mi West 23.0 mph 36.8 mph N/A   Clear
2:35 PM 39.2 °F 27.6 °F 14.0 °F 36% 29.91 in 10.0 mi West 28.8 mph - N/A   Clear
2:55 PM 39.2 °F 29.8 °F 14.0 °F 36% 29.91 in 10.0 mi WNW 18.4 mph 31.1 mph N/A   Clear
3:15 PM 39.2 °F 28.0 °F 14.0 °F 36% 29.92 in 10.0 mi WNW 26.5 mph 32.2 mph N/A   Clear
3:35 PM 37.4 °F 26.6 °F 14.0 °F 38% 29.92 in 10.0 mi West 21.9 mph 28.8 mph N/A   Clear
3:55 PM 37.4 °F 28.5 °F 14.0 °F 38% 29.92 in 10.0 mi West 15.0 mph 21.9 mph N/A   Clear
4:15 PM 35.6 °F 27.5 °F 12.2 °F 38% 29.93 in 10.0 mi WNW 11.5 mph 21.9 mph N/A   Clear
4:35 PM 32.0 °F 24.2 °F 12.2 °F 44% 29.94 in 10.0 mi WNW 9.2 mph - N/A   Clear
4:55 PM 32.0 °F 22.1 °F 14.0 °F 48% 29.95 in 10.0 mi West 13.8 mph - N/A   Clear
5:15 PM 32.0 °F - 12.2 °F 44% 29.96 in 10.0 mi North - - N/A   Clear
5:35 PM 30.2 °F 21.3 °F 12.2 °F 47% 29.97 in 10.0 mi WNW 10.4 mph - N/A   Clear
5:55 PM 26.6 °F 19.1 °F 12.2 °F 55% 29.99 in 10.0 mi WNW 6.9 mph - N/A   Clear
6:15 PM 24.8 °F 20.5 °F 12.2 °F 59% 30.00 in 10.0 mi WNW 3.5 mph - N/A   Clear
6:35 PM 21.2 °F 10.9 °F 10.4 °F 63% 30.01 in 10.0 mi NW 9.2 mph - N/A   Clear
6:55 PM 19.4 °F 10.4 °F 10.4 °F 68% 30.01 in 10.0 mi WNW 6.9 mph - N/A   Clear
7:15 PM 19.4 °F 9.5 °F 10.4 °F 68% 30.02 in 10.0 mi West 8.1 mph - N/A   Clear
7:35 PM 19.4 °F 11.5 °F 12.2 °F 74% 30.02 in 10.0 mi WNW 5.8 mph - N/A   Clear
7:55 PM 21.2 °F 14.9 °F 12.2 °F 68% 30.03 in 10.0 mi West 4.6 mph - N/A   Clear
8:15 PM 21.2 °F 11.7 °F 12.2 °F 68% 30.03 in 10.0 mi WSW 8.1 mph - N/A   Clear
8:35 PM 19.4 °F 14.3 °F 12.2 °F 74% 30.04 in 10.0 mi West 3.5 mph - N/A   Clear
8:55 PM 19.4 °F 14.3 °F 12.2 °F 74% 30.04 in 10.0 mi SW 3.5 mph - N/A   Clear
9:15 PM 21.2 °F 9.5 °F 14.0 °F 74% 30.04 in 10.0 mi WSW 11.5 mph - N/A   Clear
9:35 PM 21.2 °F 13.6 °F 12.2 °F 68% 30.04 in 10.0 mi WNW 5.8 mph - N/A   Clear
9:55 PM 21.2 °F - 14.0 °F 74% 30.04 in 10.0 mi Calm Calm - N/A   Clear
10:15 PM 21.2 °F - 14.0 °F 74% 30.05 in 10.0 mi Calm Calm - N/A   Clear
10:35 PM 19.4 °F 14.3 °F 12.2 °F 74% 30.05 in 10.0 mi WNW 3.5 mph - N/A   Clear
10:55 PM 23.0 °F 14.7 °F 15.8 °F 74% 30.06 in 10.0 mi West 6.9 mph - N/A   Clear
11:15 PM 23.0 °F 13.1 °F 14.0 °F 68% 30.06 in 10.0 mi West 9.2 mph - N/A   Clear
11:35 PM 23.0 °F 13.9 °F 14.0 °F 68% 30.08 in 10.0 mi WNW 8.1 mph - N/A   Clear
11:55 PM 21.2 °F 11.7 °F 14.0 °F 74% 30.08 in 10.0 mi West 8.1 mph - N/A   Clear